Cloverdale, Indiana, United States (46120)
Lat: 39.51N, Lon: 86.79W
Wx Zone: INZ045
Local Info
Past Weather Observations for Wednesday, March 25, 2015

NOTE: This archive is for the closest National Weather Service station to Cloverdale. Information may differ from the station used for current weather conditions.

Click here for Long-term Archive

Time Weather Temperature Dewpoint Humidity Pressure Winds Precip Visibility
23:53
Overcast
Light Rain
48°F / 9°C 45°F / 7°C 87% 29.98 in
(1015 mb)
Variable 3.5 mph
(Variable 6 kph)
0.01 in
(0.25 mm)
8SM
22:53
Clear
48°F / 9°C 45°F / 7°C 87% 29.98 in
(1015 mb)
N 5.8 mph
(N 9 kph)
- 10SM
21:53
Clear
46°F / 8°C 45°F / 7°C 93% 30.01 in
(1016 mb)
N 6.9 mph
(N 11 kph)
- 10SM
20:53
Clear
45°F / 7°C 43°F / 6°C 93% 30.04 in
(1017 mb)
Variable 3.5 mph
(Variable 6 kph)
- 7SM
19:53
Clear
48°F / 9°C 45°F / 7°C 87% 30.04 in
(1017 mb)
Calm - 7SM
18:53
Clear
52°F / 11°C 45°F / 7°C 77% 30.04 in
(1017 mb)
NNE 3.5 mph
(NNE 6 kph)
- 10SM
17:53
Clear
54°F / 12°C 46°F / 8°C 77% 30.06 in
(1018 mb)
N 3.5 mph
(N 6 kph)
- 10SM
16:53
Clear
55°F / 13°C 45°F / 7°C 67% 30.06 in
(1018 mb)
N 3.5 mph
(N 6 kph)
- 10SM
15:53
Clear
57°F / 14°C 45°F / 7°C 63% 30.06 in
(1018 mb)
Variable 3.5 mph
(Variable 6 kph)
- 10SM
15:29
Partly Cloudy
55°F / 13°C 46°F / 8°C 72% 30.06 in
(1018 mb)
Variable 4.6 mph
(Variable 7 kph)
- 10SM
15:21
Mostly Cloudy
55°F / 13°C 46°F / 8°C 72% 30.06 in
(1018 mb)
Variable 5.8 mph
(Variable 9 kph)
- 10SM
14:53
Partly Cloudy
54°F / 12°C 46°F / 8°C 77% 30.06 in
(1018 mb)
SSW 8.1 mph
(SSW 13 kph)
- 10SM
13:53
Overcast
54°F / 12°C 46°F / 8°C 77% 30.06 in
(1018 mb)
SSW 9.2 mph
(SSW 15 kph)
- 9SM
13:51
Overcast
54°F / 12°C 46°F / 8°C 77% 30.06 in
(1018 mb)
W 9.2 mph
(W 15 kph)
- 9SM
12:53
Overcast
52°F / 11°C 46°F / 8°C 82% 30.06 in
(1018 mb)
SSW 8.1 mph
(SSW 13 kph)
- 7SM
11:53
Overcast
50°F / 10°C 46°F / 8°C 88% 30.06 in
(1018 mb)
SSW 8.1 mph
(SSW 13 kph)
- 8SM
10:53
Overcast
48°F / 9°C 45°F / 7°C 87% 30.04 in
(1017 mb)
W 11.5 mph
(W 19 kph)
- 8SM
09:53
Overcast
48°F / 9°C 45°F / 7°C 87% 30.01 in
(1016 mb)
W 12.7 mph
(W 20 kph)
- 8SM
08:53
Overcast
Fog And Mist
48°F / 9°C 45°F / 7°C 87% 30.01 in
(1016 mb)
W 16.1 mph
(W 26 kph)
- 6SM
08:16
Overcast
48°F / 9°C 46°F / 8°C 94% 29.98 in
(1015 mb)
SSW 9.2 mph
(SSW 15 kph)
- 7SM
07:53
Overcast
Fog And Mist
50°F / 10°C 46°F / 8°C 88% 29.95 in
(1014 mb)
SSW 11.5 mph
(SSW 19 kph)
- 5SM
07:44
Overcast
Fog And Mist
50°F / 10°C 46°F / 8°C 88% 29.95 in
(1014 mb)
SSW 15 mph
(SSW 24 kph)
- 5SM
06:53
Overcast
52°F / 11°C 46°F / 8°C 82% 29.92 in
(1013 mb)
SSW 13.8 mph
(SSW 22 kph)
- 8SM
06:35
Overcast
52°F / 11°C 48°F / 9°C 88% 29.92 in
(1013 mb)
SSW 19.6 mph
(SSW 32 kph)
- 10SM
05:53
Mostly Cloudy
54°F / 12°C 48°F / 9°C 82% 29.89 in
(1012 mb)
SSW 15 mph
(SSW 24 kph)
- 10SM
05:45
Overcast
54°F / 12°C 48°F / 9°C 82% 29.89 in
(1012 mb)
SSW 13.8 mph
(SSW 22 kph)
- 10SM
05:25
Overcast
52°F / 11°C 48°F / 9°C 88% 29.89 in
(1012 mb)
SW 11.5 mph
(SW 19 kph)
- 10SM
04:53
Overcast
Fog And Mist
46°F / 8°C 45°F / 7°C 93% 29.89 in
(1012 mb)
S 6.9 mph
(S 11 kph)
- 5SM
04:51
Overcast
Fog And Mist
46°F / 8°C 45°F / 7°C 93% 29.89 in
(1012 mb)
S 6.9 mph
(S 11 kph)
- 6SM
03:53
Mostly Cloudy
46°F / 8°C 45°F / 7°C 93% 29.89 in
(1012 mb)
SE 8.1 mph
(SE 13 kph)
0.11 in
(2.79 mm)
8SM
03:35
Overcast
Light Rain
46°F / 8°C 45°F / 7°C 93% 29.89 in
(1012 mb)
S 8.1 mph
(S 13 kph)
0.11 in
(2.79 mm)
9SM
03:28
Overcast
Thunder Storms
46°F / 8°C 45°F / 7°C 93% 29.92 in
(1013 mb)
Variable 6.9 mph
(Variable 11 kph)
0.11 in
(2.79 mm)
3SM
03:24
Overcast
Thunder Storms
46°F / 8°C 45°F / 7°C 93% 29.92 in
(1013 mb)
W 12.7 mph
(W 20 kph)
0.11 in
(2.79 mm)
1 3/4SM
03:18
Overcast
Thunder Storms
46°F / 8°C 45°F / 7°C 93% 29.89 in
(1012 mb)
Variable 5.8 mph
(Variable 9 kph)
0.06 in
(1.52 mm)
2 1/2SM
03:06
Overcast
Thunder Storms
46°F / 8°C 43°F / 6°C 87% 29.83 in
(1010 mb)
ESE 12.7 mph
(ESE 20 kph)
0.01 in
(0.25 mm)
5SM
02:53
Overcast
Thunder Storms
45°F / 7°C 45°F / 7°C 100% 29.89 in
(1012 mb)
E 5.8 mph
(E 9 kph)
0.16 in
(4.06 mm)
2SM
02:48
Overcast
Thunder Storms
45°F / 7°C 45°F / 7°C 100% 29.92 in
(1013 mb)
SSE 5.8 mph
(SSE 9 kph)
0.11 in
(2.79 mm)
2 1/2SM
02:43
Overcast
Thunder Storms
45°F / 7°C 45°F / 7°C 100% 29.89 in
(1012 mb)
Variable 6.9 mph
(Variable 11 kph)
0.08 in
(2.03 mm)
4SM
02:28
Overcast
Thunder Storms
45°F / 7°C 43°F / 6°C 93% 29.89 in
(1012 mb)
SE 15 mph
(SE 24 kph)
0.04 in
(1.02 mm)
6SM
01:53
Overcast
Rain
45°F / 7°C 43°F / 6°C 93% 29.95 in
(1014 mb)
SSE 5.8 mph
(SSE 9 kph)
0.12 in
(3.05 mm)
3SM
00:53
Overcast
Rain
45°F / 7°C 43°F / 6°C 93% 29.95 in
(1014 mb)
SE 13.8 mph
(SE 22 kph)
0.07 in
(1.78 mm)
4SM
Time Weather Temperature Dewpoint Humidity Pressure Winds Precip Visibility


Weather for websites

WeatherForYou.com, LLC is not responsible for any damages or problems caused by this service. Current weather conditions are obtained from the closest station including government and personal stations which may have varying degrees of accuracy. Weather forecasts are derived from the NOAA NDFD. Like all things, this site belongs to Jesus Christ... He just trusts me to maintain it. If you have any questions or comments email webmaster@weatherforyou.com

Copyright © 2015, WeatherForYou.com LLC. All rights reserved.